sat.trackr.live / text

‹ back to catalog

STARLINK-31866

NORAD 59668 · 2024-084Q

PAYLOAD ACTIVE UNKNOWN

§ Identity

Operator
Country
US
Launch date
2024-05-06
Launch site
AFETR
Launch vehicle
Mass (kg)
RCS (m²)

Purposes: comms

External: N2YO · Heavens-Above · Gunter

§ Orbital elements

Epoch: 2026-09-21T07:03:31.389120Z

Period
94.27 min
Inclination
43.0046°
Eccentricity
0.0001322
Mean motion
15.27578495 rev/d
Perigee alt
482.1 km
Apogee alt
484.0 km
Semi-major
6,861.2 km
B*
4.3085e-5
RAAN
9.7239°
Arg perigee
263.3492°
Mean anomaly
96.7209°
Rev number
13,437

§ Raw data

STARLINK-318661 59668U 24084Q   26264.29411330  .00000924  00000+0  43085-4 0  99932 59668  43.0046   9.7239 0001322 263.3492  96.7209 15.27578495134374

JSON: /api/v1/satellites/59668 · /tle

For live sub-satellite position, see the globe view (requires WebGL).

§ Visibility from observer

Set your observer location to see the next 7 days of passes ≥ 10°. The values pass through the URL so the page stays shareable.

No JS? Fill the form by hand. The geolocation button needs JavaScript.